Location: Alpha Ridge Park
(39.3209°N, 76.9128°W)
Time: 22:39:15
(UTC-04:00)

Transit 2A - Pass Details

Date: 30 May 2019
Orbit: 593 x 966 km, 66.7° (Epoch: 16 June)

Event Time Altitude Azimuth Distance (km) Brightness Sun altitude
Rises 07:34:52 0° 231° (SW) 3,565 8.9 19.1°
Reaches altitude 10° 07:37:32 10° 239° (WSW) 2,657 8.3 19.6°
Maximum altitude 07:43:22 39° 307° (NW) 1,403 7.3 20.7°
Drops below altitude 10° 07:49:19 10° 16° (NNE) 2,701 9.3 21.9°
Sets 07:52:04 0° 24° (NNE) 3,631 10.0 22.4°
